This is the latest recevied weather packets stored in our database for station/object LY3FF-10. If no packets are shown the sender has not sent any weather packets the latest 10 day(s).
| Time | Temp. | Humidity | Pressure | Rain* | Wind** | Luminosity | Snow |
|---|---|---|---|---|---|---|---|
| 1777829877 | 22.22° C | 20% | 992 hPa | - | - | - | - |
| 1777829050 | 23.33° C | 20% | 991.9 hPa | - | - | - | - |
| 1777828287 | 22.78° C | 19% | 991.9 hPa | - | - | - | - |
| 1777827532 | 23.33° C | 19% | 991.9 hPa | - | - | - | - |
| 1777826792 | 23.33° C | 18% | 992 hPa | - | - | - | - |
| 1777825977 | 26.67° C | 18% | 991.9 hPa | - | - | - | - |
| 1777825237 | 26.67° C | 18% | 991.9 hPa | - | - | - | - |
| 1777824487 | 27.22° C | 18% | 991.9 hPa | - | - | - | - |
| 1777823632 | 27.22° C | 18% | 991.9 hPa | - | - | - | - |
| 1777822787 | 25.56° C | 17% | 992.1 hPa | - | - | - | - |
| 1777821957 | 28.33° C | 17% | 992 hPa | - | - | - | - |
| 1777821145 | 28.33° C | 17% | 992.1 hPa | - | - | - | - |
| 1777820247 | 27.22° C | 17% | 992.1 hPa | - | - | - | - |
| 1777819475 | 27.78° C | 17% | 992.3 hPa | - | - | - | - |
| 1777818752 | 27.78° C | 17% | 992.2 hPa | - | - | - | - |
| 1777818027 | 27.78° C | 18% | 992.4 hPa | - | - | - | - |
| 1777817257 | 32.78° C | 18% | 992.6 hPa | - | - | - | - |
| 1777816417 | 27.78° C | 18% | 992.7 hPa | - | - | - | - |
| 1777815602 | 27.22° C | 18% | 992.7 hPa | - | - | - | - |
| 1777814772 | 35° C | 18% | 992.8 hPa | - | - | - | - |
| 1777813942 | 34.44° C | 18% | 993 hPa | - | - | - | - |
| 1777813172 | 35° C | 18% | 993 hPa | - | - | - | - |
| 1777812347 | 27.22° C | 18% | 993.2 hPa | - | - | - | - |
| 1777811602 | 26.67° C | 19% | 993.2 hPa | - | - | - | - |
| 1777810817 | 26.11° C | 19% | 993.3 hPa | - | - | - | - |
* Rain since midnight (hover to see other rain measurements)
** Current wind speed in m/s (hover to see current wind gust speed)